Flag for Mongolia Weather past 2 weeks in Ulaanbaatar, Mongolia

Now
-6 °F

Clear.


Feels Like: -6 °F
Forecast: -10 / 15 °F
Wind: 1 mph from North

Location: Ulan-Bator

Current Time: Dec 23, 2014 at 12:24:27 AM

Latest Report: Dec 23, 2014 at 12:00 AM


Visibility: 10 mi

Pressure: 30.07 "Hg

Humidity: 84%

Dew point: -9 °F

Location of UlaanbaatarLocation

Historic Weather in Ulaanbaatar — Graph

°F

Ulaanbaatar temperature yesterday

Maximum temperature yesterday: 18 °F (at 3:00 PM)
Minimum temperature yesterday: -15 °F (at 7:00 AM)
Average temperature yesterday: -2 °F

Past Weeks' High & Low Weather Summary

 TemperatureHumidityPressure
High19 °F (Dec 21, 4:00 PM)85% (Dec 9, 11:30 PM)30.39 "Hg (Dec 9, 11:30 PM)
Low-24 °F (Dec 20, 7:00 AM)48% (Dec 8, 3:00 PM)29.92 "Hg (Dec 18, 12:00 AM)
Average-3 °F73%30.17 "Hg
* Reported Dec 7 11:00 PM — Dec 22 11:00 PM, Ulaanbaatar, Weather by CustomWeather, © 2014

Note: Actual official high and low records may vary slightly from our data, if they occured in-between our weather recording intervals... More about our weather records

Advertising

Ulaanbaatar weather history for previous 24 hours

 ConditionsComfort  
Time TempWeatherWind HumidityBarometerVisibility
11:00 PM
Dec 22
-4 °FClear.1 mph77%30.07 "Hg10 mi
10:30 PM-6 °FClear.3 mph77%30.07 "Hg10 mi
10:00 PM-6 °FClear.1 mph77%30.04 "Hg10 mi
9:30 PM-6 °FClear.1 mph77%30.04 "Hg10 mi
9:00 PM-4 °FClear.3 mph77%30.04 "Hg10 mi
8:30 PM-4 °FClear.1 mph77%30.01 "Hg10 mi
8:00 PM-4 °FClear.1 mph77%30.01 "Hg10 mi
7:30 PM-2 °FClear.3 mph84%30.01 "Hg10 mi
7:00 PM-4 °FClear.1 mph84%30.01 "Hg10 mi
6:30 PM-2 °FClear.3 mph84%29.98 "Hg10 mi
6:00 PM1 °FSunny.1 mph78%29.98 "Hg10 mi
5:30 PM7 °FSunny.1 mph66%29.95 "Hg10 mi
5:00 PM12 °FSunny.1 mph67%29.95 "Hg10 mi
4:30 PM16 °FSunny.1 mph57%29.95 "Hg10 mi
4:00 PM16 °FSunny.1 mph57%29.95 "Hg10 mi
3:30 PM16 °FClear.1 mph57%29.95 "Hg5 mi
3:00 PM18 °FClear.No wind58%29.92 "Hg4 mi
2:30 PM16 °FClear.1 mph57%29.92 "Hg3 mi
2:00 PM12 °FClear.1 mph67%29.95 "Hg3 mi
1:30 PM10 °FClear.1 mph67%29.95 "Hg3 mi
1:00 PM7 °FClear.No wind72%29.95 "Hg3 mi
12:30 PM5 °FClear.No wind78%29.95 "Hg3 mi
11:30 AM1 °FClear.No wind78%29.98 "Hg2 mi
11:00 AM-2 °FClear.1 mph77%29.98 "Hg2 mi
10:30 AM-4 °FClear.1 mph77%29.98 "Hg2 mi
10:00 AM-8 °FClear.No wind77%29.98 "Hg2 mi
9:30 AM-13 °FClear.No wind76%29.98 "Hg2 mi
9:00 AM-13 °FClear.1 mph76%29.98 "Hg2 mi
8:30 AM-13 °FClear.1 mph83%29.98 "Hg2 mi
8:00 AM-13 °FClear.1 mph83%29.95 "Hg3 mi
7:30 AM-13 °FClear.1 mph76%29.95 "Hg3 mi
7:00 AM-15 °FClear.1 mph76%29.98 "Hg3 mi
6:30 AM-13 °FClear.1 mph76%29.98 "Hg4 mi
5:30 AM-13 °FClear.No wind76%29.98 "Hg4 mi
5:00 AM-13 °FClear.No wind83%29.98 "Hg4 mi
4:00 AM-13 °FClear.1 mph76%29.98 "Hg4 mi
3:00 AM-9 °FClear.1 mph77%30.04 "Hg4 mi
2:00 AM-9 °FClear.1 mph77%30.04 "Hg5 mi
1:00 AM-9 °FClear.1 mph84%30.04 "Hg10 mi
12:30 AM-9 °FClear.1 mph84%30.04 "Hg10 mi
12:00 AM-8 °FClear.1 mph77%30.07 "Hg10 mi
Weather by CustomWeather, © 2014

See weather overviewHow to use our weather pages